Retour au catalogue

STARLINK-11634

ActifCommunicationsVLEO
NORAD 63673·PAYLOAD·🇺🇸 United States

Lancé Apr 28, 2025 depuis Cape Canaveral Space Force Station

Loading…

Prochains Passages (prochaines 24 heures)

TLE

FraisSource: CelesTrak SupGP

Époque: Sep 14, 2026, 22:37 UTC

1 63673C 25085K   26257.94284722  .00052558  00000+0  40813-3 0  2575
2 63673  43.0005 217.5989 0001524 254.9780 230.1106 15.70817729    18

Suivez STARLINK-11634 en temps réel avec AllMySat

Download on the App Store